SCP
0 0 0 0 0 0 0 0 0 0 0 0 0 0 0 0 0 0 1 1 1 1 1 1 1 2 2 1 1 1 1 1 1 1 1 1 1 1 1 1 1 0 1 1 1 1 2 2 2
0 0 0 0 0 0 0 0 0 0 0 0 0 0 0 0 0 1 1 1 1 1 1 1 1 1 1 1 1 1 1 1 1 1 1 1 1 1 1 1 1 1 1 1 1 1 2 2 2
0 0 0 0 0 0 0 0 0 0 0 0 0 0 0 0 1 1 1 1 1 1 1 1 1 1 1 1 1 1 1 1 1 1 1 1 1 1 1 1 1 1 1 1 1 1 2 2 2
0 0 0 0 0 0 0 0 0 0 0 0 0 0 0 0 1 1 1 1 1 1 1 1 1 1 1 1 1 1 1 1 1 1 1 1 1 1 1 1 1 1 1 1 1 1 1 2 2
0 0 0 0 0 0 0 0 0 0 0 0 0 0 0 1 1 1 1 1 2 2 1 1 1 1 1 1 1 1 1 1 1 1 1 1 1 1 1 1 1 1 1 1 1 1 1 1 2
0 0 0 0 0 0 0 0 0 0 0 0 0 0 0 1 1 1 1 2 2 2 1 1 1 1 1 1 1 1 1 1 1 1 1 1 1 1 1 1 1 1 1 1 1 1 1 1 1
0 0 0 0 0 0 0 0 0 0 0 0 0 0 0 1 1 2 2 2 2 2 1 1 1 1 1 1 1 1 1 1 1 1 1 1 1 1 1 1 1 1 1 1 1 1 1 1 1
0 0 0 0 0 0 0 0 0 0 0 0 0 0 0 1 2 2 2 2 2 2 1 1 1 1 1 1 0 0 1 1 1 1 1 1 1 1 1 1 1 1 1 1 1 1 1 1 0
0 0 0 0 0 0 0 0 0 0 0 0 0 0 0 1 2 2 2 2 1 1 1 1 1 1 1 1 0 0 1 1 1 1 1 1 1 1 1 0 1 1 1 1 1 1 1 1 0
0 0 0 0 0 0 0 0 0 0 0 0 0 0 0 1 1 2 1 1 1 1 1 1 1 1 1 1 0 0 1 1 1 1 1 1 1 1 1 1 1 1 1 1 1 1 1 1 1
0 0 0 0 0 0 0 0 0 0 0 0 0 0 0 0 1 1 1 1 1 1 1 1 1 1 1 1 1 1 1 1 1 1 1 1 1 1 1 1 1 1 1 1 1 1 1 1 1
0 0 0 0 0 0 0 0 0 0 0 0 0 0 0 0 0 0 1 1 1 1 1 1 1 1 1 1 1 1 1 1 1 1 1 1 1 1 1 1 1 1 1 1 1 1 1 1 1
0 0 0 0 0 0 0 0 0 0 0 0 0 0 0 0 0 0 1 1 1 1 1 1 1 1 1 1 1 1 1 1 1 1 1 1 1 1 1 1 1 1 1 1 1 1 1 1 1
0 0 0 0 0 0 0 0 0 0 0 0 0 0 0 0 0 0 0 1 1 1 1 1 0 1 1 1 0 0 1 1 1 1 0 0 0 0 1 1 1 0 0 0 1 1 1 1 1
0 0 0 0 0 0 0 0 0 0 0 0 0 0 0 0 0 0 0 0 0 1 1 0 0 0 1 1 0 0 0 1 1 1 0 0 0 0 0 0 0 0 0 0 0 0 0 0 0
0 0 0 0 0 0 0 0 0 0 0 0 0 0 0 0 0 0 0 0 0 0 0 0 0 0 1 1 0 0 0 0 1 1 1 0 0 0 1 1 1 1 1 0 0 0 0 0 0
0 0 0 0 0 0 0 0 0 0 0 0 0 0 0 0 0 0 0 0 0 0 0 0 0 0 1 1 0 0 0 0 0 1 1 0 0 1 1 1 1 1 1 0 0 0 0 0 0
0 0 0 0 0 0 0 0 0 0 0 0 0 0 0 0 0 0 0 0 0 0 0 0 0 0 1 1 0 0 0 0 0 0 0 0 0 1 1 1 1 1 0 0 0 0 0 0 0
0 0 0 0 0 0 0 0 0 0 0 0 0 0 0 0 0 0 0 0 0 0 0 0 0 0 0 0 0 0 0 0 0 0 0 0 0 1 1 1 1 0 0 0 0 0 0 0 0
0 0 0 0 0 0 0 0 0 0 0 0 0 0 0 0 0 0 0 0 0 0 0 0 0 0 0 0 0 0 0 0 0 0 0 0 0 0 1 0 0 0 0 0 0 0 0 0 0
0 0 0 0 0 0 0 0 0 0 0 0 0 0 0 0 0 0 0 0 0 0 0 0 0 0 0 0 0 0 0 0 0 0 0 0 0 0 0 0 0 0 0 0 0 0 0 0 0
0 0 0 0 0 0 0 0 0 0 0 0 0 0 0 0 0 0 0 0 0 0 0 0 0 0 0 0 0 0 0 0 0 0 0 0 0 0 0 0 0 0 0 0 0 0 0 0 0
0 0 0 0 0 0 0 0 0 0 0 0 0 0 0 0 0 0 0 0 0 0 0 0 0 0 0 0 0 0 0 0 0 0 0 0 0 0 0 0 0 0 0 0 0 0 0 0 0
0 0 0 0 0 0 0 0 0 0 0 0 0 0 0 0 0 0 0 0 0 0 0 0 0 0 0 0 0 0 0 0 0 0 0 0 0 0 0 0 0 0 0 0 0 0 0 0 0
0 0 0 0 0 0 0 0 0 0 0 0 0 0 0 0 0 0 0 0 0 0 0 0 0 0 0 0 0 0 0 0 0 0 0 0 0 0 0 0 0 0 0 0 0 0 0 0 0
0 0 0 0 0 0 0 0 0 0 0 0 0 0 0 0 0 0 0 0 0 0 0 0 0 0 0 0 0 0 0 0 0 0 0 0 0 0 0 0 0 0 0 0 0 0 0 0 0
0 0 0 0 0 0 0 0 0 0 0 0 0 0 0 0 0 0 0 0 0 0 0 0 0 0 0 0 0 0 0 0 0 0 0 0 0 0 0 0 0 0 0 0 0 0 0 0 0
0 0 0 0 0 0 0 0 0 0 0 0 0 0 0 0 0 0 0 0 0 0 0 0 0 0 0 0 0 0 0 0 0 0 0 0 0 0 0 0 0 0 0 0 0 0 0 0 0
0 0 0 0 0 0 0 0 0 0 0 0 0 0 0 0 0 0 0 0 0 0 0 0 0 0 0 0 0 0 0 0 0 0 0 0 0 0 0 0 0 0 0 0 0 0 0 0 0
0 0 0 0 0 0 0 0 0 0 0 0 0 0 0 0 0 0 0 0 0 0 0 0 0 0 0 0 0 0 0 0 0 0 0 0 0 0 0 0 0 0 0 0 0 0 0 0 0
Wind_Speed
6 3 2 3 4 3 5 3 2 1 1 0 1 2 2 1 2 2 4 2 2 5 6 6 4 6 6 7 7 7 7 8 8 8 8 8 8 8 8 7 7 7 7 8 9 9 9 9 9
4 3 2 3 5 5 4 4 4 2 1 1 0 1 1 1 3 3 2 1 2 4 5 5 4 4 6 6 7 7 7 7 7 8 8 8 8 8 7 7 7 7 7 8 8 8 8 9 9
2 2 2 3 4 5 3 3 3 1 0 1 1 1 1 2 2 2 2 0 2 4 5 5 3 4 5 5 6 7 7 7 7 7 8 8 8 7 7 7 7 7 7 7 8 8 8 8 8
2 2 2 4 6 5 3 1 1 2 2 1 1 1 1 2 3 3 1 1 3 4 4 5 3 3 4 4 5 5 6 6 6 7 7 7 7 7 7 7 7 6 7 7 7 7 7 8 8
1 2 4 6 7 4 3 3 3 3 1 1 2 1 1 2 3 2 1 1 3 3 3 4 3 2 3 4 4 4 5 6 6 6 6 6 6 7 6 7 6 6 6 7 7 7 7 7 8
2 3 5 7 7 4 3 3 4 4 3 1 2 2 1 3 3 3 1 1 2 2 2 3 3 2 2 3 3 3 4 6 6 6 6 6 6 6 6 6 6 6 6 7 7 6 7 7 7
2 3 5 6 6 6 4 3 4 4 3 2 2 2 2 1 3 2 1 2 3 3 2 2 3 3 2 2 2 2 3 5 5 6 5 5 5 5 5 5 5 6 6 6 6 6 6 6 6
1 2 4 6 6 5 2 3 2 4 3 1 1 2 1 2 2 1 1 2 3 3 2 2 1 2 2 2 3 2 3 4 5 6 5 5 5 5 5 4 5 5 6 6 6 6 6 6 6
2 4 6 5 5 3 2 3 1 1 1 1 1 2 3 2 2 2 2 2 2 2 1 1 1 1 1 2 2 3 4 4 5 5 6 4 4 4 3 4 4 5 5 5 5 6 6 5 6
3 5 6 3 3 3 2 3 2 2 3 2 2 1 2 2 2 2 1 1 1 0 1 0 1 1 1 1 1 2 2 3 3 3 4 3 2 2 2 4 4 4 4 5 5 6 5 3 3
2 4 3 3 3 3 3 3 2 4 5 5 5 3 1 1 2 1 1 1 1 0 0 1 1 1 1 1 1 1 1 2 2 4 3 3 2 2 2 2 3 3 3 3 4 3 2 2 2
2 3 3 3 2 3 4 3 3 5 6 5 4 2 2 2 2 2 2 1 1 0 1 1 2 1 1 1 1 1 1 1 1 2 3 3 2 2 2 1 1 2 1 2 2 1 2 3 2
4 3 3 3 3 4 4 6 6 6 6 4 3 2 2 2 2 1 1 1 1 1 1 2 2 1 1 1 1 1 1 1 1 1 2 2 2 2 2 1 1 1 1 2 2 2 3 3 3
2 3 4 5 5 4 5 7 6 7 4 3 2 2 3 3 2 2 1 2 2 2 2 2 1 1 0 1 1 1 1 1 1 1 1 2 2 2 2 2 1 1 1 1 2 2 2 2 2
2 3 5 4 4 4 4 8 8 6 4 4 3 3 2 3 2 2 3 3 3 2 2 1 1 0 0 1 1 1 1 1 1 1 1 1 1 2 2 2 1 1 1 2 2 3 2 2 2
3 4 5 3 3 4 6 11 5 3 4 4 4 3 3 3 3 2 2 2 2 2 2 1 1 0 0 1 1 1 1 1 1 1 1 1 1 2 2 2 1 1 1 2 2 3 3 3 2
4 6 7 4 2 3 7 10 4 2 4 5 4 4 3 3 3 2 2 2 2 2 1 1 0 0 1 1 1 1 1 1 1 1 1 1 1 1 1 1 1 2 2 2 2 2 2 3 3
6 6 6 6 2 4 8 11 7 5 5 6 6 5 4 4 3 3 2 2 1 1 0 0 0 0 1 1 1 1 2 2 1 1 1 1 1 1 1 1 1 2 2 2 2 2 2 2 2
5 7 8 7 3 5 10 13 10 7 7 8 7 6 6 5 3 2 1 1 1 1 0 0 0 0 1 1 2 1 1 1 1 1 2 1 1 1 1 1 2 2 2 2 2 2 2 2 2
7 9 10 7 3 6 9 13 10 9 9 9 9 7 6 5 3 1 1 1 1 0 0 0 0 1 1 1 1 2 2 1 1 1 1 2 2 1 1 1 1 1 2 3 3 3 2 2 3
9 10 10 8 6 5 8 11 9 7 6 6 7 7 5 4 4 2 1 1 0 0 1 0 0 0 0 1 2 2 2 1 1 1 1 2 2 1 1 1 0 1 1 2 3 3 3 3 3
8 7 8 8 7 5 4 8 8 6 6 6 6 6 4 3 2 2 2 1 1 1 1 0 0 1 1 1 2 3 2 2 1 0 0 1 1 1 1 1 1 0 1 1 1 2 2 4 3
5 2 5 6 7 7 6 8 7 4 8 7 5 5 4 2 2 2 1 1 1 1 0 0 1 1 1 1 2 2 2 1 1 1 1 1 1 1 1 1 1 1 0 1 1 1 2 3 3
2 1 2 3 5 9 9 9 9 5 7 6 4 3 3 1 1 1 1 1 1 0 0 0 1 1 1 1 2 2 2 2 1 1 1 1 1 1 1 1 1 1 1 1 1 1 2 2 3
4 3 3 4 6 8 4 9 10 3 4 5 5 4 2 2 2 1 1 1 0 1 1 0 1 2 1 1 2 1 1 2 2 1 1 0 0 1 1 1 1 1 1 1 1 1 2 2 3
7 7 6 6 6 5 5 10 6 2 2 3 3 3 3 2 2 2 2 1 1 1 1 0 1 1 1 1 1 1 1 1 0 0 1 1 1 1 1 1 1 1 1 1 1 1 1 2 3
7 7 4 3 2 6 8 7 6 3 2 2 2 2 3 3 2 2 2 2 1 1 1 1 1 1 1 1 1 1 1 0 0 0 0 0 1 1 1 1 1 1 1 1 1 1 1 2 2
5 5 4 6 6 9 8 9 7 5 4 3 3 3 3 2 2 2 2 2 1 1 1 1 1 1 1 1 1 1 0 0 0 0 0 1 1 1 1 1 1 1 1 1 1 1 2 2 2
7 7 6 5 5 6 8 7 2 4 4 4 4 4 3 2 2 1 1 1 1 1 2 2 2 1 1 1 1 1 1 0 0 0 1 1 1 1 1 1 2 2 2 2 2 2 2 3 2
7 10 10 8 7 7 8 8 2 2 2 3 4 3 2 1 1 1 1 1 1 2 2 1 1 1 1 1 1 0 0 1 0 1 1 1 1 1 1 1 2 2 2 2 2 2 3 3 3
Wind_Direction
328 320 271 230 214 217 221 202 212 201 196 10 321 268 238 237 295 35 53 106 114 152 157 162 169 159 149 144 141 141 144 143 142 140 138 136 132 129 125 120 116 115 109 113 113 108 103 100 97
329 305 236 224 230 218 210 206 210 229 48 69 195 247 199 126 23 36 67 90 135 153 158 162 149 155 148 147 146 146 144 140 142 142 141 139 135 130 127 121 116 115 116 109 108 109 107 104 101
303 297 245 213 226 230 206 184 211 229 85 209 149 353 335 39 45 29 14 205 161 156 161 146 142 147 147 149 150 151 148 143 139 140 142 141 136 132 129 124 119 116 112 113 109 103 110 107 104
258 195 215 228 219 228 242 198 205 190 159 181 217 136 106 33 353 353 7 176 161 155 161 144 138 144 149 148 151 152 147 145 141 143 140 138 134 132 128 125 121 117 114 111 112 105 103 111 110
240 225 211 220 229 227 242 258 240 240 242 216 221 231 129 49 2 20 73 159 157 148 152 147 121 123 135 144 149 154 153 147 142 141 134 128 126 126 125 124 122 120 115 112 107 110 99 109 113
189 218 223 226 223 225 234 246 235 242 249 253 230 222 126 58 19 15 49 142 137 135 136 141 119 112 121 133 137 148 151 144 139 132 130 128 128 126 126 124 122 118 117 114 111 107 107 99 112
221 215 233 235 232 231 229 231 242 241 241 250 262 216 142 62 3 0 75 122 117 120 124 136 158 154 129 115 117 128 141 139 134 130 126 119 119 121 122 119 123 120 116 112 114 112 111 103 111
276 219 225 230 232 237 232 220 251 262 259 18 262 236 191 4 6 55 107 111 110 108 112 123 142 173 173 161 120 110 129 130 127 123 115 109 111 112 109 119 115 121 118 114 117 119 119 111 106
227 227 232 227 227 233 212 222 235 273 206 175 258 327 7 57 95 96 93 92 93 85 86 113 129 142 174 168 134 136 129 126 126 127 122 137 146 141 133 117 109 116 117 117 120 121 116 111 111
211 228 234 242 245 250 245 254 263 216 228 235 245 334 32 97 128 135 147 166 150 81 18 341 170 172 172 164 170 168 160 155 160 151 147 154 149 139 131 105 102 110 117 125 119 119 130 150 137
202 230 233 245 259 262 258 260 269 242 251 259 262 266 227 148 155 178 209 229 243 245 22 337 303 210 180 181 185 176 167 166 171 158 152 146 142 139 145 144 131 134 142 143 133 147 153 149 146
208 242 246 256 264 258 258 254 249 252 266 302 290 268 222 202 203 220 244 261 278 314 336 332 307 260 190 198 185 179 180 179 176 164 159 156 160 161 162 166 157 165 163 161 166 157 153 151 153
220 239 247 259 263 268 261 254 260 261 274 291 289 258 241 238 240 248 267 280 285 296 318 320 313 289 219 177 184 174 193 199 175 161 160 169 172 172 169 164 170 176 176 180 170 165 164 159 152
217 232 257 267 256 254 253 263 253 261 276 278 263 252 251 252 262 277 281 276 283 292 302 309 314 307 244 168 180 172 174 172 161 154 153 175 175 176 174 162 165 170 181 186 178 167 161 152 150
221 253 260 245 242 240 249 258 243 261 260 259 258 259 270 277 279 276 270 264 273 280 288 303 283 328 174 172 170 160 149 149 142 143 145 144 156 171 175 165 167 167 169 175 163 154 158 160 161
227 234 253 228 232 234 232 256 256 256 228 246 259 266 268 278 281 283 285 277 278 280 279 297 319 56 153 161 150 132 124 121 131 134 137 146 149 163 165 162 174 176 171 173 172 168 169 174 178
222 247 255 256 218 227 230 257 264 250 231 246 259 268 268 273 289 295 296 288 282 275 269 272 282 138 172 157 131 115 106 93 78 99 114 147 143 157 159 159 165 175 174 171 170 178 187 175 173
235 244 253 259 261 247 245 255 263 252 245 253 260 264 266 267 280 304 313 306 299 283 261 216 117 116 158 151 136 119 95 83 67 65 58 70 119 148 157 161 163 168 164 161 163 171 181 179 164
249 247 263 273 287 268 259 264 266 258 249 250 251 254 257 261 275 300 325 332 3 26 33 65 102 116 142 163 164 153 139 109 75 51 48 55 62 112 142 173 170 169 164 168 165 162 166 163 147
242 252 264 278 286 273 274 271 263 251 245 246 250 252 253 256 261 283 326 357 8 349 359 8 148 163 170 169 163 173 172 152 112 80 56 46 49 62 90 135 170 173 172 170 169 157 162 160 172
243 245 256 269 296 263 276 266 244 236 238 247 247 249 249 241 245 249 252 258 271 317 304 315 57 100 133 139 143 133 133 121 92 54 41 33 44 54 63 62 173 178 170 184 186 184 183 183 185
250 242 251 260 265 262 259 273 248 230 240 240 241 242 243 240 232 229 236 250 258 279 278 252 121 107 94 112 134 148 155 155 179 220 124 62 58 58 61 61 66 137 168 197 202 215 214 191 189
246 267 248 248 248 259 235 257 265 219 244 243 234 231 235 237 224 218 231 245 251 261 244 191 127 107 99 113 128 150 150 151 146 108 88 65 62 55 46 48 67 47 269 220 212 229 233 210 204
199 213 219 212 228 248 231 236 265 229 238 240 229 223 219 221 226 230 229 207 173 108 113 152 145 113 105 121 130 140 150 146 134 103 80 32 22 35 26 23 32 25 353 314 260 233 240 234 224
208 216 234 228 227 243 198 231 254 257 251 248 241 229 225 219 210 196 160 143 136 88 66 59 154 120 114 127 134 141 155 166 170 173 195 252 314 346 344 348 339 331 319 313 302 258 245 239 229
215 220 227 247 249 253 210 235 249 276 281 265 252 223 212 215 213 203 196 184 156 107 73 43 112 132 139 141 137 128 127 176 186 208 231 240 264 299 313 325 325 325 314 302 282 271 269 251 240
205 219 248 261 282 265 240 244 262 235 249 237 224 206 217 220 217 212 201 184 168 145 101 47 90 92 103 121 124 123 116 127 115 357 289 288 310 311 319 310 301 301 301 290 268 246 264 253 241
241 199 192 217 242 251 251 246 241 225 234 237 228 223 229 232 224 213 200 185 173 160 132 115 89 97 89 70 70 63 81 283 260 241 273 297 289 299 298 297 287 287 285 273 249 249 245 241 237
187 199 214 222 240 249 261 255 230 232 217 220 230 229 232 234 235 220 205 170 159 147 134 121 112 95 76 68 57 41 23 5 341 312 307 301 293 290 277 276 277 275 270 264 247 247 251 244 243
229 218 207 222 233 236 259 266 106 215 219 226 240 238 237 235 237 225 204 172 157 165 157 150 136 114 78 63 62 43 12 0 331 304 306 307 295 291 282 277 273 273 276 270 252 246 250 246 243